Flag for Slovakia Weather past 2 weeks in Košice, Slovakia

Now
32 °F

Passing clouds.


Feels Like: 29 °F
Forecast: 37 / 45 °F
Wind: 3 mph from Southeast

Location: Kosice - Barca

Current Time: Dec 21, 2014 at 9:17:35 PM

Latest Report: Dec 21, 2014 at 9:00 PM


Visibility: N/A

Pressure: 30.27 "Hg

Humidity: 87%

Dew point: 28 °F

Location of KošiceLocation

Historic Weather in Košice — Graph

°F

Košice temperature yesterday

Maximum temperature yesterday: 48 °F (at 10:30 AM)
Minimum temperature yesterday: 36 °F (at 10:30 PM)
Average temperature yesterday: 42 °F

Past Weeks' High & Low Weather Summary

 TemperatureHumidityPressure
High48 °F (Dec 20, 10:30 AM)100% (Dec 11, 7:30 AM)30.24 "Hg (Dec 11, 7:30 AM)
Low28 °F (Dec 11, 6:00 AM)46% (Dec 21, 1:00 PM)29.80 "Hg (Dec 17, 2:30 AM)
Average38 °F87%30.04 "Hg
* Reported Dec 6 8:00 PM — Dec 21 8:00 PM, Košice, Weather by CustomWeather, © 2014

Note: Actual official high and low records may vary slightly from our data, if they occured in-between our weather recording intervals... More about our weather records

Advertising

Košice weather history for previous 24 hours

 ConditionsComfort  
Time TempWeatherWind HumidityBarometerVisibility
8:00 PM
Dec 21
36 °FClear.7 mph70%30.24 "Hg10 mi
7:30 PM34 °FClear.7 mph70%30.24 "Hg10 mi
7:00 PM37 °FClear.6 mph60%30.24 "Hg10 mi
6:30 PM39 °FPassing clouds.3 mph61%30.24 "HgN/A
6:00 PM39 °FClear.2 mph52%30.24 "Hg10 mi
5:30 PM41 °FPassing clouds.8 mph49%30.21 "HgN/A
5:00 PM41 °FPassing clouds.6 mph53%30.21 "HgN/A
4:30 PM39 °FClear.6 mph61%30.21 "Hg10 mi
4:00 PM41 °FClear.3 mph57%30.18 "Hg10 mi
3:30 PM41 °FSunny.5 mph57%30.18 "Hg10 mi
3:00 PM43 °FSunny.12 mph53%30.18 "Hg10 mi
2:30 PM43 °FSunny.15 mph49%30.15 "Hg10 mi
2:00 PM45 °FSunny.20 mph46%30.15 "Hg10 mi
1:30 PM45 °FPassing clouds.22 mph46%30.15 "HgN/A
1:00 PM45 °FPassing clouds.16 mph46%30.12 "HgN/A
12:30 PM45 °FScattered clouds.21 mph49%30.12 "HgN/A
12:00 PM45 °FScattered clouds.20 mph49%30.12 "HgN/A
11:30 AM43 °FScattered clouds.12 mph53%30.12 "HgN/A
11:00 AM39 °FScattered clouds.3 mph75%30.12 "HgN/A
10:30 AM41 °FScattered clouds.3 mph66%30.09 "HgN/A
10:00 AM39 °FScattered clouds.3 mph75%30.09 "HgN/A
9:30 AM39 °FScattered clouds.2 mph70%30.09 "HgN/A
9:00 AM36 °FScattered clouds.6 mph81%30.07 "HgN/A
8:30 AM36 °FScattered clouds.3 mph75%30.04 "HgN/A
8:00 AM34 °FScattered clouds.2 mph87%30.04 "HgN/A
7:30 AM34 °FScattered clouds.2 mph81%30.01 "HgN/A
7:00 AM37 °FPassing clouds.6 mph70%30.01 "HgN/A
6:30 AM37 °FPassing clouds.7 mph75%30.01 "HgN/A
6:00 AM37 °FPassing clouds.2 mph75%30.01 "HgN/A
5:30 AM32 °FPassing clouds.5 mph87%29.98 "HgN/A
5:00 AM36 °FPassing clouds.6 mph81%29.95 "HgN/A
4:30 AM34 °FPassing clouds.2 mph87%29.95 "HgN/A
4:00 AM34 °FPassing clouds.6 mph87%29.92 "HgN/A
3:30 AM32 °FPassing clouds.3 mph93%29.92 "HgN/A
3:00 AM32 °FPassing clouds.3 mph93%29.92 "HgN/A
2:30 AM32 °FPassing clouds.3 mph87%29.92 "HgN/A
2:00 AM30 °FClear.3 mph86%29.92 "Hg10 mi
1:30 AM34 °FClear.7 mph87%29.92 "Hg10 mi
1:00 AM32 °FClear.7 mph87%29.89 "Hg10 mi
12:30 AM34 °FClear.7 mph87%29.89 "Hg10 mi
12:00 AM34 °FClear.3 mph87%29.92 "Hg10 mi
11:30 PM
Dec 20
36 °FClear.8 mph81%29.92 "Hg10 mi
11:00 PM36 °FClear.2 mph81%29.92 "Hg10 mi
10:30 PM36 °FClear.6 mph87%29.92 "Hg10 mi
10:00 PM37 °FClear.8 mph75%29.95 "Hg10 mi
9:30 PM39 °FClear.9 mph70%29.92 "Hg10 mi
9:00 PM39 °FClear.15 mph70%29.92 "Hg10 mi
Weather by CustomWeather, © 2014

See weather overviewHow to use our weather pages